Flag for India Weather past 2 weeks in Faridabad, Haryana, India

Now
82 °F

Fog.


Feels Like: 91 °F
Forecast: 82 / 93 °F
Wind: 7 mph from West

Location: New Delhi Palam Airport

Current Time: Aug 3, 2015 at 9:17:49 AM

Latest Report: Aug 3, 2015 at 8:00 AM


Visibility: 2 mi

Pressure: 29.68 "Hg

Humidity: 84%

Dew point: 77 °F

Location of FaridabadLocation

Historic Weather in Faridabad — Graph

°F

Faridabad temperature yesterday

Maximum temperature yesterday: 91 °F (at 11:00 AM)
Minimum temperature yesterday: 79 °F (at 12:00 AM)
Average temperature yesterday: 84 °F

Past Weeks' High & Low Weather Summary

 TemperatureHumidityPressure
High95 °F (Jul 21, 3:30 PM)100% (Jul 20, 8:30 AM)29.74 "Hg (Jul 20, 8:30 AM)
Low77 °F (Jul 20, 10:30 AM)52% (Jul 28, 6:30 PM)29.45 "Hg (Jul 19, 4:30 PM)
Average85 °F76%29.58 "Hg
* Reported Jul 19 7:30 AM — Aug 3 7:30 AM, Faridabad, Weather by CustomWeather, © 2015

Note: Actual official high and low records may vary slightly from our data, if they occured in-between our weather recording intervals... More about our weather records

Advertising

Faridabad weather history for previous 24 hours

 ConditionsComfort  
Time TempWeatherWind HumidityBarometerVisibility
7:30 AM
Mon, Aug 3
81 °FFog.7 mph89%29.68 "Hg1 mi
7:00 AM81 °FFog.6 mph89%29.65 "Hg1 mi
6:30 AM79 °FFog.6 mph94%29.65 "Hg1 mi
6:00 AM79 °FFog.5 mph94%29.65 "Hg1 mi
5:30 AM79 °FFog.6 mph94%29.65 "Hg1 mi
5:00 AM79 °FFog.3 mph94%29.65 "Hg2 mi
4:30 AM79 °FFog.3 mph94%29.65 "Hg2 mi
4:00 AM79 °FFog.2 mph94%29.62 "Hg2 mi
3:30 AM79 °FFog.5 mph94%29.62 "Hg2 mi
2:30 AM81 °FFog.No wind89%29.65 "Hg2 mi
2:00 AM81 °FFog.No wind89%29.68 "Hg2 mi
1:30 AM81 °FFog.No wind89%29.68 "Hg2 mi
1:00 AM81 °FFog.No wind89%29.68 "Hg2 mi
12:30 AM81 °FFog.No wind89%29.68 "Hg2 mi
12:00 AM81 °FFog.3 mph89%29.71 "Hg2 mi
11:30 PM
Sun, Aug 2
81 °FFog.5 mph89%29.71 "Hg2 mi
11:00 PM81 °FFog.3 mph89%29.71 "Hg2 mi
10:30 PM81 °FFog.No wind89%29.71 "Hg2 mi
10:00 PM82 °FFog.No wind84%29.68 "Hg2 mi
9:30 PM82 °FFog.5 mph84%29.68 "Hg2 mi
9:00 PM82 °FFog.5 mph84%29.68 "Hg2 mi
8:30 PM82 °FPartly cloudy.7 mph84%29.68 "Hg2 mi
8:00 PM82 °FPartly cloudy.7 mph84%29.68 "Hg2 mi
7:30 PM84 °FBroken clouds.7 mph79%29.68 "Hg2 mi
7:00 PM88 °FBroken clouds.3 mph70%29.65 "Hg2 mi
6:30 PM88 °FBroken clouds.3 mph70%29.65 "Hg2 mi
6:00 PM88 °FScattered clouds.6 mph70%29.65 "Hg2 mi
5:30 PM88 °FScattered clouds.5 mph70%29.65 "Hg2 mi
5:00 PM86 °FBroken clouds.No wind75%29.65 "Hg2 mi
4:30 PM84 °FBroken clouds.6 mph74%29.65 "Hg2 mi
4:00 PM86 °FBroken clouds.7 mph70%29.65 "Hg2 mi
3:30 PM84 °FBroken clouds.13 mph84%29.65 "Hg2 mi
2:30 PM90 °FBroken clouds.9 mph67%29.65 "Hg2 mi
2:00 PM90 °FBroken clouds.9 mph67%29.68 "Hg2 mi
1:30 PM91 °FBroken clouds.6 mph59%29.71 "Hg2 mi
1:00 PM91 °FScattered clouds.5 mph59%29.71 "Hg2 mi
12:30 PM91 °FScattered clouds.5 mph63%29.71 "Hg2 mi
12:00 PM91 °FScattered clouds.3 mph63%29.71 "Hg2 mi
11:30 AM91 °FScattered clouds.2 mph63%29.71 "Hg2 mi
11:00 AM91 °FScattered clouds.3 mph63%29.74 "Hg2 mi
10:30 AM90 °FScattered clouds.3 mph67%29.74 "Hg2 mi
10:00 AM88 °FScattered clouds.3 mph70%29.74 "Hg2 mi
9:30 AM86 °FScattered clouds.6 mph70%29.71 "Hg2 mi
9:00 AM84 °FFog.6 mph74%29.71 "Hg2 mi
Weather by CustomWeather, © 2015

See weather overviewHow to use our weather pages